Weather History for Bloomington, IN

Change the Weather History Date:

Saturday, January 19, 2013

  Actual Average Record
Temperature  
Mean Temperature 46 °F 29 °F  
Max Temperature 54 °F 38 °F 59 °F (2006)
Min Temperature 38 °F 20 °F 6 °F (2003)
Degree Days  
Heating Degree Days 19 36  
Month to date heating degree days 616 684  
Since 1 July heating degree days 2630 2757  
Cooling Degree Days 0 0  
Month to date cooling degree days 0 0  
Year to date cooling degree days 0 0  
Moisture  
Dew Point 28 °F    
Average Humidity 53    
Maximum Humidity 65    
Minimum Humidity 41    
Precipitation  
Precipitation 0.00 in 0.08 in 0.15 in (2000)
Month to date precipitation 3.85 2.32  
Year to date precipitation 3.85 2.32  
Sea Level Pressure  
Sea Level Pressure 30.06 in    
Wind  
Wind Speed 15 mph (SW)    
Max Wind Speed 26 mph    
Max Gust Speed 35 mph    
Visibility 10 miles    
Events      
T = Trace of Precipitation, MM = Missing Value Source: NWS Daily Summary

Daily Weather History Graph

Daily Weather History Graph

Search for Another Location

Airport:

Trip Planner

Search our weather history database for the weather conditions in past years. The results will help you decide how hot, cold, wet, or windy it might be!

Date:

Astronomy

Jan. 19, 2013 Rise Set
Actual Time 8:02 AM EST 5:52 PM EST
Civil Twilight 7:33 AM EST 6:21 PM EST
Nautical Twilight 7:00 AM EST 6:54 PM EST
Astronomical Twilight 6:28 AM EST 7:26 PM EST
Moon 12:18 PM EST (1/19) 1:36 AM EST (1/19)
Length of Visible Light 10h 48m
Length of Day
9h 50m
First Quarter, 57% of the Moon is Illuminated
Jan 19
First Quarter
Jan 26
Full
Feb 3
Last Quarter
Feb 10
New
Feb 17
First Quarter

Hourly Weather History & Observations

Time (EST) Temp. Windchill Dew Point Humidity Pressure Visibility Wind Dir Wind Speed Gust Speed Precip Events Conditions
12:53 AM 41.0 °F 33.5 °F 21.0 °F 45% 30.19 in 10.0 mi SW 13.8 mph 23.0 mph N/A   Clear
1:53 AM 39.9 °F 32.5 °F 21.9 °F 49% 30.19 in 10.0 mi SW 12.7 mph 19.6 mph N/A   Clear
2:53 AM 39.9 °F 32.1 °F 21.9 °F 49% 30.19 in 10.0 mi SSW 13.8 mph - N/A   Clear
3:53 AM 39.9 °F 32.9 °F 23.0 °F 51% 30.19 in 10.0 mi SW 11.5 mph 23.0 mph N/A   Clear
4:53 AM 39.0 °F 31.4 °F 23.0 °F 53% 30.18 in 10.0 mi SW 12.7 mph 19.6 mph N/A   Clear
5:53 AM 37.9 °F 30.9 °F 23.0 °F 55% 30.17 in 10.0 mi SSW 10.4 mph - N/A   Clear
6:53 AM 39.0 °F 31.0 °F 24.1 °F 55% 30.16 in 10.0 mi SW 13.8 mph 20.7 mph N/A   Clear
7:53 AM 37.9 °F 30.5 °F 24.1 °F 57% 30.15 in 10.0 mi SSW 11.5 mph 21.9 mph N/A   Clear
8:53 AM 39.9 °F 31.1 °F 25.0 °F 55% 30.14 in 10.0 mi SW 17.3 mph 28.8 mph N/A   Clear
9:53 AM 42.1 °F 34.5 °F 26.1 °F 53% 30.14 in 10.0 mi SSW 15.0 mph 29.9 mph N/A   Clear
10:53 AM 45.0 °F 37.4 °F 27.0 °F 49% 30.12 in 10.0 mi SW 18.4 mph 29.9 mph N/A   Clear
11:53 AM 48.0 °F - 28.0 °F 46% 30.09 in 10.0 mi SW 17.3 mph 25.3 mph N/A   Clear
12:53 PM 51.1 °F - 28.9 °F 43% 30.03 in 10.0 mi SW 17.3 mph 24.2 mph N/A   Clear
1:53 PM 53.1 °F - 30.0 °F 41% 29.99 in 10.0 mi SW 18.4 mph 34.5 mph N/A   Clear
2:53 PM 54.0 °F - 30.0 °F 40% 29.96 in 10.0 mi SW 21.9 mph 28.8 mph N/A   Clear
3:53 PM 54.0 °F - 30.9 °F 41% 29.93 in 10.0 mi SW 17.3 mph 27.6 mph N/A   Clear
4:53 PM 53.1 °F - 30.9 °F 43% 29.92 in 10.0 mi SSW 18.4 mph 27.6 mph N/A   Clear
5:53 PM 51.1 °F - 32.0 °F 48% 29.94 in 10.0 mi SW 16.1 mph 24.2 mph N/A   Clear
6:53 PM 50.0 °F - 32.0 °F 50% 29.94 in 10.0 mi SW 17.3 mph 23.0 mph N/A   Clear
7:53 PM 48.9 °F - 32.0 °F 52% 29.95 in 10.0 mi SW 15.0 mph 31.1 mph N/A   Clear
8:53 PM 48.9 °F - 33.1 °F 54% 29.95 in 10.0 mi SW 23.0 mph 32.2 mph N/A   Clear
9:53 PM 48.0 °F - 34.0 °F 58% 29.97 in 10.0 mi WSW 15.0 mph 28.8 mph N/A   Clear
10:53 PM 46.0 °F 40.6 °F 36.0 °F 68% 29.98 in 10.0 mi WSW 11.5 mph 24.2 mph N/A   Clear
11:53 PM 45.0 °F 39.3 °F 36.0 °F 71% 29.97 in 10.0 mi WSW 11.5 mph 20.7 mph N/A   Clear